Regional Weather Roundup
Issued by NWS Grand Forks, ND

Home | Current Version | Previous Version | Text Only | Print | Product List | Glossary Off
Versions: 1 2 3 4 5 6 7 8 9 10 11 12 13 14 15 16 17 18 19 20 21 22 23 24 25 26 27 28 29 30 31 32 33 34 35 36 37 38 39 40 41 42 43 44 45 46 47 48 49 50

000
ASUS43 KFGF 270810
RWRFGF
PRAIRIE TO PINES  WEATHER ROUNDUP
NATIONAL WEATHER SERVICE EASTERN NORTH DAKOTA/GRAND FORKS ND
300 AM CDT WED JUL 27 2016

 **SATELLITE DATA USED TO AUGMENT SKY COVER AT AUTOMATED STATIONS**
 *****  WEATHER ACROSS EASTERN NORTH DAKOTA  *****

CITY           SKY/WX    TMP DP  RH WIND       PRES   REMARKS
GRAND FORKS    CLOUDY    66  62  87 N8        30.00F
GRAND FRKS AFB CLOUDY    65  62  89 NE8       30.01F
GRAND FRKS NWS   N/A     66 N/A N/A N6          N/A
DEVILS LAKE    CLOUDY    64  61  90 NE9       30.06S
FARGO          CLOUDY    67  65  93 N6        29.97R
WAHPETON ARPT  CLOUDY    64  63  94 W13       30.00R
$$

 ***** WEATHER ACROSS CENTRAL AND WESTERN NORTH DAKOTA  *****

CITY           SKY/WX    TMP DP  RH WIND       PRES   REMARKS
BISMARCK       CLOUDY    63  60  90 N5        30.06R
MINOT          MOCLDY    65  62  90 N6        30.09R
JAMESTOWN      MOCLDY    63  61  93 NE5       30.02R
MINOT AFB      PTCLDY    65  61  87 E7        30.09R
GARRISON         N/A     60  59  96 N3        30.09R
WILLISTON      CLEAR     63  54  72 CALM      30.10R
DICKINSON      MOCLDY    54  53  97 CALM      30.10S
HETTINGER      CLEAR     62  58  86 NE6       30.11R
$$

 *****  OTHER AIRPORT OBSERVATIONS IN OUR AREA  *****

CITY           SKY/WX    TMP DP  RH WIND       PRES   REMARKS
WALHALLA       NOT AVBL
GRAFTON AIRPOR FAIR      64  61  88 N6        30.05S
VALLEY CITY AR PTSUNNY   64  64 100 N9        30.03S
CANDO          NOT AVBL
CAVALIER APRT  FAIR      61  59  94 N6        30.06R
GWINNER        PTSUNNY   66  66 100 N3        30.01R
SHEYENNE NWR     N/A     67  65  94 CALM      29.95S
ROLLA          CLOUDY    59  55  88 N6        30.12R
 ***** THE ABOVE OBSERVATIONS ARE NON NWS ARE NOT QUALITY
       CONTROLLED AND MAY MIS-REPORT RAIN FOR SNOW...
$$

  *****  WEATHER ACROSS NORTHERN MINNESOTA  *****

CITY           SKY/WX    TMP DP  RH WIND       PRES   REMARKS
FLAG ISLAND    NOT AVBL
WARROAD        NOT AVBL
ROSEAU         PTCLDY    61  55  82 N3        30.03S
HALLOCK        MOCLDY    61  57  88 NE5       30.04S
THF RVR FALLS  CLOUDY    64  59  83 E6        30.03S
BAUDETTE       CLOUDY    66  56  70 N8        30.01R
WASKISH        CLOUDY    64  57  77 N7        29.98F
CROOKSTON      CLOUDY    63  63 100 NE6       30.01F
GREENBUSH NDAW   N/A     61  57  88 N5          N/A
$$
  *****  WEATHER ACROSS CENTRAL AND WEST MINNESOTA  *****

CITY           SKY/WX    TMP DP  RH WIND       PRES   REMARKS
FOSSTON        CLOUDY    64  57  77 N7        30.01R
BEMIDJI        CLOUDY    68  61  77 CALM      29.99R
PARK RAPIDS    CLOUDY    71  64  78 VRB3      29.97R
ELBOW LAKE     LGT RAIN  67  67  98 SW8       29.99R
WADENA         CLOUDY    64  64 100 CALM      29.96S
DETROIT LAKES  CLOUDY    68  64  88 W3        30.00R
MOORHEAD       CLOUDY    66  64  94 NE8       29.97S
FERGUS FALLS   DRIZZLE   66  66 100 W6        29.99R
MORRIS MN      LGT RAIN  70  66  88 CALM      29.97S
STAPLES        CLOUDY    64  63  94 CALM      29.97R
$$
  *****  WEATHER ELSEWHERE ACROSS MINNESOTA  *****

CITY           SKY/WX    TMP DP  RH WIND       PRES   REMARKS
DULUTH         MOCLDY    69  67  93 CALM      29.96F
INTRNTL FALLS  CLOUDY    68  57  68 NE3       29.99S
ELY            CLOUDY    66  57  72 SE3       29.98F
CLOQUET        CLOUDY    64  61  88 CALM      29.96F
WHEATON        RAIN      70  68  94 W3        30.00S
BRAINERD       CLOUDY    63  62  97 CALM      29.97R
HIBBING        CLOUDY    61  60  97 CALM      29.97S
ALEXANDRIA     CLOUDY    70  67  90 S5        29.99S
SAINT CLOUD    CLOUDY    68  66  93 CALM      29.97R
MINNEAPOLIS    CLOUDY    79  68  69 SW8       29.97S
$$

  *****  WEATHER ACROSS SOUTH DAKOTA  *****

CITY           SKY/WX    TMP DP  RH WIND       PRES   REMARKS
SIOUX FALLS    MOCLDY    75  64  68 S18G26    29.94F
BROOKINGS      CLOUDY    70  65  84 S8        29.95S
WATERTOWN      CLOUDY    70  63  78 E7        29.97R
HURON          CLOUDY    70  65  84 W13       29.92R
SISSETON         N/A     67  66  97 NW8       29.98S
ABERDEEN       CLOUDY    68  62  81 NE14      29.97S
MITCHELL       CLOUDY    73  62  68 N10       29.93S
PIERRE         CLOUDY    65  62  90 E5        29.97F
MOBRIDGE       CLOUDY    67  63  87 CALM      29.99R
RAPID CITY     CLEAR     64  59  83 NW15      30.08F
$$

  *****  SOME WEATHER IN NEARBY STATES *****

CITY           SKY/WX    TMP DP  RH WIND       PRES   REMARKS
GLASGOW MT     LGT RAIN  61  59  93 E8        30.06F
GREAT FALLS MT CLEAR     55  53  93 W8        30.14F
CHEYENNE WY    CLEAR     61  45  55 NW7       30.22R
SCOTTSBLUFF NE CLOUDY    66  58  75 NE12      30.12S
OMAHA NE       MOCLDY    74  66  76 S6        30.01S
DES MOINES IA  PTCLDY    73  65  75 S5        30.00S
DAVENPORT IA   CLEAR     65  63  93 CALM      30.01R
CHICAGO IL     CLEAR     71  63  75 SW3       29.99S
EAU CLAIRE WI  CLOUDY    69  68  96 CALM      29.97F
LA CROSSE WI   CLEAR     71  68  90 SE5       29.97F
$$

  *****  SOME NATIONAL WEATHER *****

CITY           SKY/WX    TMP DP  RH WIND       PRES   REMARKS
LA GUARDIA NY  MOCLDY    77  66  68 NE3       29.93R
RALEIGH NC     MOCLDY    76  75  97 S3        29.96F
ATLANTA GA     CLEAR     76  73  91 SW6       30.04F
NEW ORLEANS LA MOCLDY    80  74  81 S7        29.96F
OKLAHOMA CITY  MOCLDY    75  74  96 SE3       29.95F
ALBUQUERQUE NM CLOUDY    74  56  53 SE5       30.20F
SALT LAKE CITY CLEAR     75  34  22 SE7       30.04S
LOS ANGELES CA PTCLDY    70  61  73 W7        29.88F
BOISE ID       CLEAR     73  49  42 S5        29.97R
SEATTLE WA     CLEAR     59  58  96 NW5       30.11F
$$

*** WEATHER ACROSS MANITOBA...SASKATCHEWAN AND ONTARIO ***
                ***ONTARIO***

CITY           SKY/WX    TMP DP  RH WIND       PRES   REMARKS
GERALDTON      CLEAR     59  54  82 VRB2      29.99R
THUNDER BAY    CLEAR     57  54  88 VRB2      29.97F
SIOUX LOOKOUT  CLEAR     54  52  94 VRB2      30.04F
TORONTO        PTCLDY    66  57  72 CALM      29.96S
BIG TROUT LK   NOT AVBL
PICKLE LAKE    NOT AVBL
DRYDEN         CLEAR     61  54  77 NE9       30.03F
KENORA         PTCLDY    61  54  77 NE8       30.04F
$$
                *** MANITOBA***

CITY           SKY/WX    TMP DP  RH WIND       PRES   REMARKS
BRANDON        PTCLDY    57  54  88 NE9       30.12R
DAUPHIN        CLEAR     50  48  93 W6        30.13S
ISLAND LAKE    CLOUDY    57  54  88 N3        30.14S
PILOT MOUND      N/A     59  55  88 NE6         N/A
THE PAS        CLEAR     55  54  94 SE6       30.15S
THOMPSON       CLEAR     39  39 100 CALM      30.17S FOG
WINNIPEG       PTCLDY    52  52 100 N6        30.08S
LYNN LAKE      CLEAR     52  48  87 MISG      30.14R
CHURCHILL      CLEAR     50  48  93 N8        30.12S
GILLAM         CLOUDY    55  50  82 N9        30.15R
$$
                ***SASKATCHEWAN***

CITY           SKY/WX    TMP DP  RH WIND       PRES   REMARKS
ESTEVAN        NOT AVBL
KINDERSLEY     PTCLDY    59  54  82 SE9       30.12S
LLOYDMINSTER   CLEAR     59  54  82 S9        30.11S
PRINCE ALBERT  CLEAR     59  55  88 CALM      30.13R
REGINA         PTCLDY    61  50  67 E5        30.14F
YORKTON        PTCLDY    54  52  94 CALM      30.15R
N. BATTLEFORD  CLEAR     55  54  94 SE7       30.15S
LA RONGE       PTCLDY    63  50  63 SE8       30.09F
SASKATOON      PTCLDY    57  52  82 SW2       30.15S
SWIFT CURRENT  CLEAR     57  55  94 SE10      30.12F
$$
NOTE: THESE ARE AUTOMATED STATIONS WITH LIMITED QUALITY CONTROL
      "FAIR" INDICATES FEW OR NO CLOUDS BELOW 12,000 FEET WITH NO
      SIGNIFICANT WEATHER AND/OR OBSTRUCTIONS TO VISIBILITY.
      SKY/WX - SKY CONDITION AND SIGNIFICANT WEATHER.
      TMP - AIR TEMPERATURE.    DP   - DEWPOINT TEMPERATURE.
      RH  - RELATIVE HUMIDITY.  PRES - PRESSURE.
      HX  - HEAT INDEX.         WCI  - WIND CHILL INDEX.
$




USA.gov is the U.S. government's official web portal to all federal, state and local government web resources and services.